Probability
0 0 0 0 0 0 0 0 0 0 0 0 0 0 0 0 0 0 0 0 0 0 0 0 0 0 0 0 0 0 0 0 0 0 0 0 0 0 0 0 0 0 0 0
0 0 0 0 0 0 0 0 0 0 0 0 0 0 0 0 0 0 0 0 0 0 0 0 0 0 0 0 0 0 0 0 0 0 0 0 0 0 0 0 0 0 0 0
0 0 0 0 0 0 0 0 0 0 0 0 0 0 0 0 0 0 0 0 0 0 0 0 0 0 0 0 0 0 0 0 0 0 0 0 0 0 0 0 0 0 0 0
0 0 0 0 0 0 0 0 0 0 0 0 0 0 0 0 0 0 0 0 0 0 0 0 0 0 0 0 0 0 0 0 0 0 0 0 0 0 0 0 0 0 0 0
0 0 0 0 0 0 0 0 0 0 0 0 0 0 0 0 0 0 0 0 0 0 0 0 0 0 0 0 0 0 0 0 0 0 0 0 0 0 0 0 0 0 0 0
0 0 0 0 0 0 0 0 0 0 0 0 0 0 0 0 0 0 0 0 0 0 0 0 0 0 0 0 0 0 0 0 0 0 0 0 0 0 0 0 0 0 0 0
0 0 0 0 0 0 0 0 0 0 0 0 0 0 0 0 0 0 0 0 0 0 0 0 0 0 0 0 0 0 0 0 0 0 0 0 0 0 0 0 0 0 0 0
0 0 0 0 0 0 0 0 0 0 0 0 0 0 0 0 0 0 0 0 0 0 0 0 0 0 0 0 0 0 0 0 0 0 0 0 0 0 0 0 0 0 0 0
0 0 0 0 0 0 0 0 0 0 0 0 0 0 0 0 0 0 0 0 0 0 0 0 0 0 0 0 0 0 0 0 0 0 0 0 0 0 0 0 0 0 0 0
0 0 0 0 0 0 0 0 0 0 0 0 0 0 0 0 0 0 0 0 0 0 0 0 0 0 0 0 0 0 0 0 0 0 0 0 0 0 0 0 0 0 0 0
0 0 0 0 0 0 0 0 0 0 0 0 0 0 0 0 0 0 0 0 0 0 0 0 0 0 0 0 0 0 0 0 0 0 0 0 0 0 0 0 0 0 0 0
0 0 0 0 0 0 0 0 0 0 0 0 0 0 0 0 0 0 0 0 0 0 0 0 0 0 0 0 0 0 0 0 0 0 0 0 0 0 0 0 0 0 0 0
0 0 0 0 0 0 0 0 0 0 0 0 0 0 0 0 0 0 0 0 0 0 0 0 0 0 0 0 0 0 0 0 0 0 0 0 0 0 0 0 0 0 0 0
0 0 0 0 0 0 0 0 0 0 0 0 0 0 0 0 0 0 0 0 0 0 0 0 0 0 0 0 0 0 0 0 0 0 0 0 0 0 0 0 0 0 0 0
0 0 0 0 0 0 0 0 0 0 0 0 0 0 0 0 0 0 0 0 0 0 0 0 0 0 0 0 0 0 0 0 0 0 0 0 0 0 0 0 0 0 0 0
0 0 0 0 0 0 0 0 0 0 0 0 0 0 0 0 0 0 0 0 0 0 0 0 0 0 0 0 0 0 0 0 0 0 0 0 0 0 0 0 0 0 0 0
0 0 0 0 0 0 0 0 0 0 0 0 0 0 0 0 0 0 0 0 0 0 0 0 0 0 0 0 0 0 0 0 0 0 0 0 0 0 0 0 0 0 0 0
0 0 0 0 0 0 0 0 0 0 0 0 0 0 0 0 0 0 0 0 0 0 0 0 0 0 0 0 0 0 0 0 0 0 0 0 0 0 0 0 0 0 0 0
0 0 0 0 0 0 0 0 0 0 0 0 0 0 0 0 0 0 0 0 0 0 0 0 0 0 0 0 0 0 0 0 0 0 0 0 0 0 0 0 0 0 0 0
0 0 0 0 0 0 0 0 0 0 0 0 0 0 0 0 0 0 0 0 0 0 0 0 0 0 0 0 0 0 0 0 0 0 0 0 0 0 0 0 0 0 0 0
0 0 0 0 0 0 0 0 0 0 0 0 0 0 0 0 0 0 0 0 0 0 0 0 0 0 0 0 0 0 0 0 0 0 0 0 0 0 0 0 0 0 0 0
0 0 0 0 0 0 0 0 0 0 0 0 0 0 0 0 0 0 0 0 0 0 0 0 0 0 0 0 0 0 0 0 0 0 0 0 0 0 0 0 0 0 0 0
0 0 0 0 0 0 0 0 0 0 0 0 0 0 0 0 0 0 0 0 0 0 0 0 0 0 0 0 0 0 0 0 0 0 0 0 0 0 0 0 0 0 0 0
0 0 0 0 0 0 0 0 0 0 0 0 0 0 0 0 0 0 0 0 0 0 0 0 0 0 0 0 0 0 0 0 0 0 0 0 0 0 0 0 0 0 0 0
0 0 0 0 0 0 0 0 0 0 0 0 0 0 0 0 0 0 0 0 0 0 0 0 0 0 0 0 0 0 0 0 0 0 0 0 0 0 0 0 0 0 0 0
0 0 0 0 0 0 0 0 0 0 0 0 0 0 0 0 0 0 0 0 0 0 0 0 0 0 0 0 0 0 0 0 0 0 0 0 0 0 0 0 0 0 0 0
Height
5680 5681 5680 5681 5681 5680 5679 5679 5678 5679 5678 5679 5679 5681 5682 5683 5684 5686 5687 5688 5690 5691 5692 5694 5695 5697 5699 5700 5702 5703 5705 5706 5707 5708 5709 5710 5711 5712 5712 5713 5714 5715 5716 5718
5672 5671 5672 5671 5670 5670 5669 5669 5669 5669 5668 5668 5669 5670 5672 5673 5674 5675 5676 5678 5679 5680 5681 5683 5684 5686 5688 5689 5690 5692 5694 5695 5696 5697 5698 5698 5699 5700 5700 5701 5702 5703 5704 5706
5662 5663 5662 5661 5660 5660 5660 5660 5660 5659 5659 5658 5658 5660 5662 5663 5664 5665 5666 5667 5668 5669 5670 5672 5673 5674 5676 5678 5679 5680 5682 5683 5684 5685 5685 5686 5687 5687 5688 5689 5690 5691 5692 5694
5652 5653 5652 5651 5651 5650 5650 5651 5650 5649 5648 5648 5649 5647 5653 5653 5654 5655 5656 5657 5658 5658 5659 5660 5662 5663 5665 5666 5667 5669 5670 5671 5672 5673 5673 5674 5675 5676 5676 5677 5678 5679 5680 5681
5643 5643 5642 5642 5642 5641 5640 5640 5639 5638 5637 5637 5638 5636 5641 5643 5644 5645 5646 5647 5647 5648 5648 5649 5651 5652 5653 5654 5656 5657 5658 5659 5660 5660 5661 5661 5662 5663 5664 5664 5665 5666 5667 5669
5633 5633 5632 5632 5632 5631 5630 5630 5629 5628 5627 5626 5629 5627 5629 5632 5633 5634 5635 5635 5636 5636 5637 5638 5639 5640 5641 5642 5643 5644 5645 5647 5647 5648 5648 5649 5650 5650 5651 5652 5653 5654 5655 5656
5624 5623 5623 5622 5622 5622 5621 5621 5619 5617 5616 5616 5619 5616 5620 5622 5622 5623 5623 5624 5624 5625 5626 5626 5627 5628 5629 5630 5631 5632 5633 5634 5635 5635 5635 5636 5637 5638 5638 5639 5640 5641 5642 5643
5614 5614 5614 5613 5613 5612 5612 5611 5611 5609 5608 5608 5608 5607 5611 5612 5611 5611 5612 5612 5613 5613 5614 5615 5615 5616 5617 5618 5619 5619 5620 5621 5622 5622 5623 5623 5624 5625 5626 5626 5627 5628 5629 5631
5604 5604 5604 5603 5603 5603 5601 5601 5601 5599 5597 5597 5597 5599 5601 5601 5601 5601 5601 5601 5602 5602 5603 5603 5603 5604 5605 5606 5607 5607 5608 5609 5609 5609 5610 5610 5611 5612 5612 5613 5614 5615 5617 5618
5594 5594 5594 5594 5593 5593 5593 5592 5591 5589 5587 5587 5588 5590 5592 5592 5591 5591 5591 5591 5591 5591 5591 5591 5592 5592 5593 5593 5594 5595 5595 5596 5596 5596 5597 5597 5597 5598 5599 5600 5601 5602 5604 5605
5585 5585 5584 5584 5584 5584 5583 5583 5581 5580 5579 5579 5578 5583 5582 5582 5581 5581 5580 5580 5580 5580 5580 5580 5580 5580 5581 5581 5582 5582 5583 5583 5583 5583 5584 5584 5584 5584 5585 5586 5587 5589 5590 5592
5576 5575 5574 5575 5574 5573 5573 5573 5572 5572 5571 5569 5569 5574 5573 5573 5571 5570 5570 5569 5569 5568 5568 5568 5569 5569 5569 5570 5570 5570 5571 5571 5571 5571 5571 5571 5571 5571 5572 5573 5574 5575 5577 5579
5567 5566 5565 5566 5567 5566 5564 5563 5562 5562 5561 5560 5560 5565 5563 5562 5561 5560 5560 5559 5558 5558 5557 5557 5557 5557 5558 5558 5558 5558 5559 5559 5559 5558 5558 5559 5559 5559 5560 5560 5561 5562 5564 5565
5558 5557 5557 5557 5556 5555 5555 5555 5553 5552 5551 5551 5552 5553 5553 5551 5550 5550 5549 5548 5547 5547 5547 5546 5546 5546 5546 5546 5546 5546 5547 5546 5546 5546 5546 5546 5547 5547 5547 5548 5548 5549 5549 5551
5550 5549 5548 5547 5546 5545 5545 5545 5545 5544 5543 5543 5543 5543 5543 5541 5540 5539 5538 5537 5537 5536 5536 5535 5535 5535 5535 5535 5535 5534 5535 5534 5534 5534 5534 5534 5534 5534 5534 5535 5535 5535 5536 5537
5541 5540 5539 5539 5538 5536 5536 5537 5536 5535 5535 5534 5533 5534 5533 5531 5530 5528 5528 5527 5526 5525 5525 5524 5524 5524 5524 5523 5523 5523 5523 5522 5522 5522 5522 5522 5522 5522 5521 5522 5522 5522 5523 5523
5533 5532 5530 5530 5529 5527 5528 5530 5528 5527 5526 5525 5524 5525 5523 5522 5520 5518 5517 5516 5515 5515 5514 5514 5513 5513 5512 5512 5512 5512 5511 5511 5510 5510 5510 5510 5509 5509 5509 5509 5509 5509 5510 5510
5526 5524 5522 5521 5521 5520 5524 5521 5520 5518 5518 5516 5515 5514 5513 5512 5510 5509 5507 5506 5505 5504 5504 5503 5503 5502 5502 5501 5501 5501 5500 5500 5500 5499 5499 5498 5498 5497 5497 5497 5497 5497 5497 5497
5519 5517 5515 5513 5512 5512 5514 5513 5510 5509 5509 5508 5506 5504 5503 5502 5501 5500 5498 5496 5495 5494 5493 5493 5492 5492 5492 5491 5490 5490 5490 5489 5489 5488 5488 5487 5486 5486 5485 5485 5485 5484 5484 5484
5513 5510 5509 5506 5504 5504 5507 5504 5501 5501 5500 5499 5497 5495 5494 5492 5491 5491 5488 5487 5485 5484 5483 5482 5482 5481 5481 5480 5479 5479 5479 5478 5478 5477 5476 5475 5475 5474 5473 5473 5472 5472 5472 5471
5506 5504 5502 5500 5497 5497 5497 5495 5494 5494 5493 5491 5488 5486 5485 5483 5481 5480 5478 5477 5476 5475 5474 5472 5471 5471 5470 5469 5469 5468 5468 5467 5467 5466 5465 5464 5463 5462 5461 5461 5460 5460 5459 5459
5498 5497 5495 5493 5491 5492 5489 5487 5486 5485 5483 5481 5479 5478 5476 5474 5472 5470 5469 5467 5466 5465 5464 5462 5461 5460 5459 5458 5458 5458 5457 5456 5455 5454 5454 5453 5452 5451 5450 5449 5448 5448 5447 5446
5491 5490 5487 5487 5487 5483 5481 5479 5478 5476 5475 5473 5471 5469 5467 5465 5464 5462 5460 5458 5457 5455 5454 5452 5451 5450 5449 5448 5447 5446 5446 5445 5444 5443 5442 5441 5440 5439 5438 5438 5437 5436 5435 5434
5484 5482 5480 5478 5477 5475 5473 5472 5470 5468 5467 5465 5463 5461 5459 5457 5455 5453 5451 5449 5447 5446 5444 5443 5442 5440 5439 5438 5436 5436 5435 5434 5433 5432 5431 5430 5429 5428 5427 5426 5425 5424 5423 5422
5477 5475 5473 5471 5470 5468 5466 5464 5462 5461 5459 5457 5455 5452 5450 5448 5446 5444 5442 5440 5438 5436 5434 5433 5432 5431 5429 5428 5427 5425 5424 5423 5423 5422 5421 5420 5419 5417 5416 5415 5414 5413 5411 5410
5470 5468 5466 5464 5462 5461 5459 5457 5455 5453 5451 5449 5447 5445 5442 5440 5438 5436 5434 5432 5429 5427 5425 5423 5422 5421 5419 5418 5417 5415 5414 5413 5412 5411 5410 5409 5408 5407 5406 5405 5403 5401 5400 5398
Wind_Speed
36 37 37 37 37 38 38 38 38 38 39 39 39 40 39 40 41 41 41 42 42 42 43 44 43 43 43 43 43 43 43 43 43 42 43 43 44 44 45 45 45 44 44 44
36 37 37 37 37 38 38 39 38 38 38 39 40 40 40 40 40 41 41 42 42 43 43 44 44 44 44 44 45 44 44 44 44 44 44 44 45 45 44 45 46 46 46 46
37 36 36 37 38 38 39 39 39 39 39 40 41 40 40 40 40 40 41 41 42 42 43 43 44 44 45 46 46 46 46 46 45 45 45 45 45 45 45 45 46 47 47 47
36 36 37 37 37 38 38 38 39 39 40 41 41 42 39 39 40 40 40 41 41 42 42 43 44 44 45 46 47 47 47 47 47 46 46 46 45 45 46 46 46 47 48 48
36 36 37 37 37 37 37 37 38 39 40 41 41 43 41 40 40 41 41 41 41 42 42 43 43 44 45 46 47 47 47 47 47 47 47 47 46 46 47 47 47 47 48 48
35 36 36 36 36 36 37 38 38 39 40 41 40 42 42 40 40 40 41 41 42 42 43 43 44 45 45 46 47 47 47 47 47 47 47 48 48 48 48 48 48 48 48 48
34 35 35 35 35 35 36 37 38 39 40 41 39 41 41 40 39 39 40 41 41 41 42 42 44 45 45 46 46 46 47 47 47 47 47 48 48 48 48 48 48 48 48 48
35 35 34 34 35 35 35 36 37 38 40 40 40 41 40 40 40 40 40 40 41 41 42 42 43 44 45 45 46 46 47 47 47 48 48 48 49 49 48 49 49 49 48 48
34 35 35 35 34 34 35 36 36 37 39 40 40 40 39 38 39 40 39 39 40 40 41 42 43 44 44 45 46 46 46 47 48 48 48 49 49 50 50 49 50 49 49 48
34 35 34 34 33 34 35 35 35 36 38 38 38 38 38 37 38 38 39 39 39 39 40 41 42 42 43 44 45 46 46 47 48 48 48 48 49 50 49 49 50 51 50 50
34 35 34 34 34 33 34 35 36 37 38 38 39 37 36 35 36 36 37 38 39 40 40 41 42 42 43 43 44 44 45 46 47 47 47 48 49 50 50 49 50 51 51 51
33 34 34 34 34 34 34 34 35 36 37 38 39 39 36 35 35 36 36 37 38 39 40 40 41 42 42 43 43 44 44 45 46 47 47 48 48 49 49 49 50 50 51 51
33 34 34 34 34 34 34 33 35 36 36 37 38 38 37 36 36 37 37 38 38 38 39 39 40 42 43 43 44 44 44 44 45 45 46 47 47 48 48 49 49 50 50 51
32 33 33 33 34 34 34 33 33 34 35 36 36 36 36 37 38 38 38 38 38 38 38 38 38 40 42 42 43 43 43 43 44 44 44 45 46 47 48 49 49 49 49 51
31 32 32 32 32 33 33 33 33 33 34 35 34 35 35 37 38 39 39 39 38 38 37 37 37 38 39 40 41 42 42 43 43 43 44 45 46 47 47 49 49 49 50 51
31 32 31 30 31 32 32 32 32 33 33 34 34 34 34 36 37 39 39 39 39 38 37 37 38 38 39 39 40 40 40 41 42 43 44 45 45 46 46 47 48 49 49 50
30 31 31 31 30 31 31 30 31 32 33 34 35 35 35 36 37 37 37 37 37 37 37 37 36 36 36 37 38 38 38 39 39 41 42 42 43 44 45 45 46 47 47 48
28 29 30 30 30 31 29 29 30 31 32 34 35 35 36 36 36 36 36 36 36 36 37 37 36 35 35 35 36 36 37 37 38 38 39 40 41 42 42 43 44 45 46 47
27 28 28 29 30 30 29 29 30 31 31 32 33 34 35 35 36 36 36 36 35 35 35 36 36 36 36 36 36 35 35 36 37 38 38 39 40 41 41 42 42 43 44 45
26 26 27 29 30 30 29 29 29 30 30 30 31 32 33 34 35 35 35 36 35 35 35 34 35 36 37 37 37 36 36 36 37 37 38 39 40 41 41 41 42 43 43 43
27 27 27 28 29 29 29 28 29 29 30 29 30 31 31 32 32 33 34 35 35 35 35 35 35 35 35 36 36 37 37 37 37 37 38 38 39 39 40 41 41 42 42 43
29 29 28 28 29 29 29 29 29 29 29 30 30 31 31 32 32 32 33 33 33 34 35 35 35 35 35 35 35 36 36 37 36 36 37 38 39 39 39 40 40 40 42 42
28 28 28 28 28 29 28 29 29 29 30 30 31 31 32 32 32 32 31 32 32 33 34 34 34 34 35 35 35 35 35 36 36 36 36 37 38 38 38 38 38 39 40 41
27 28 28 28 28 29 29 30 30 29 29 30 31 31 31 31 31 31 31 32 32 32 32 33 33 33 33 34 34 34 34 34 34 34 35 36 36 36 36 36 37 38 39 40
26 27 27 28 28 28 29 30 30 30 30 30 30 30 30 30 31 32 32 32 32 31 31 32 32 32 32 32 33 33 34 34 34 35 35 35 35 36 36 36 36 37 38 39
26 26 27 28 29 30 29 30 31 31 30 30 30 30 30 30 31 31 31 31 31 31 31 31 31 31 32 32 33 33 33 34 34 34 34 35 35 35 35 36 36 37 37 38
Wind_Direction
269 268 267 268 268 269 269 269 268 267 266 265 263 262 260 259 259 259 259 258 258 258 257 257 257 257 257 257 258 258 258 259 260 261 261 261 260 260 259 259 258 258 257 258
269 268 268 267 266 266 266 267 267 267 266 265 264 262 261 260 260 260 259 259 258 258 257 257 257 257 257 257 258 258 259 260 261 261 261 261 261 260 260 259 259 259 259 259
269 269 268 267 267 266 266 267 267 268 267 266 266 264 262 261 261 260 260 260 259 259 258 258 258 257 257 257 257 259 260 261 261 262 262 261 261 260 260 259 259 260 260 260
270 268 267 267 267 268 268 268 269 269 268 268 267 266 262 262 261 261 261 261 261 261 260 259 258 258 257 257 258 258 259 260 261 262 262 262 262 261 261 260 260 260 260 260
271 270 269 268 269 269 269 269 269 269 269 269 268 268 265 264 263 263 263 262 262 262 261 260 260 260 259 259 259 260 260 260 261 262 262 262 262 262 262 261 261 261 261 261
271 271 271 270 270 270 270 270 270 270 270 269 268 269 268 266 266 266 265 264 264 263 262 261 261 261 260 260 260 261 261 261 261 262 262 261 261 262 262 262 262 261 261 262
271 270 271 272 272 271 270 271 271 271 271 271 271 270 270 269 268 268 267 266 265 265 264 263 262 261 261 260 260 260 260 261 261 262 262 261 260 261 262 262 262 262 262 262
274 271 270 271 272 271 270 270 271 272 274 274 272 271 273 271 269 269 269 268 267 266 265 264 264 263 262 260 259 259 260 260 261 261 260 260 260 260 262 262 262 262 262 261
276 275 272 271 271 272 271 270 271 272 274 274 274 274 274 274 272 270 270 269 269 268 267 266 265 264 263 261 260 259 260 260 261 260 260 260 259 259 261 261 261 260 260 260
276 276 274 273 273 272 271 272 271 272 274 275 276 276 277 276 274 273 271 270 269 268 267 266 265 264 263 262 261 261 261 261 261 261 261 260 260 260 261 261 260 259 259 259
278 277 275 273 273 274 272 272 271 271 273 273 275 275 277 277 275 274 273 271 269 268 268 267 266 264 263 263 262 262 261 261 262 261 261 261 261 260 260 260 260 259 258 258
278 279 278 276 275 274 273 272 272 272 273 273 274 275 276 277 276 274 274 273 272 270 269 268 267 265 264 263 263 262 262 262 263 262 262 262 261 261 260 260 260 259 258 259
279 279 279 276 275 274 273 272 272 272 272 273 274 276 276 276 276 275 275 275 273 272 270 267 266 265 264 264 263 263 263 264 264 264 263 262 262 261 261 261 262 260 259 259
279 279 279 278 277 276 274 273 273 272 273 273 275 277 277 276 275 275 275 275 273 272 270 269 268 266 265 265 265 265 265 265 265 265 264 263 262 262 263 263 263 262 260 259
280 279 279 278 276 275 274 274 273 272 273 274 275 276 277 276 276 275 276 275 274 272 270 269 268 269 268 267 267 266 266 265 265 265 264 264 264 264 264 264 264 264 263 262
282 282 281 279 277 276 275 274 273 273 273 274 275 276 276 277 277 277 276 275 275 273 271 270 270 270 270 269 268 269 268 268 266 265 264 265 265 265 266 265 265 264 264 263
285 284 283 281 279 278 277 277 276 275 274 276 276 277 276 277 278 278 277 275 274 273 272 272 272 272 271 270 270 269 269 268 267 266 266 266 266 266 266 266 266 265 264 264
285 284 283 283 280 278 281 280 278 278 278 279 279 278 278 278 279 279 278 277 276 275 274 274 273 272 272 271 270 270 269 268 267 267 267 268 267 267 267 266 266 265 265 266
286 285 283 283 282 282 280 282 281 281 280 281 281 280 279 280 280 279 278 278 278 277 276 274 274 273 273 272 271 270 270 269 269 269 268 268 269 269 269 268 268 267 267 267
286 285 285 285 285 287 286 285 285 285 284 283 283 282 282 282 281 279 277 277 277 278 278 277 275 274 274 273 272 272 271 272 272 271 270 270 270 270 269 270 269 269 268 269
287 287 287 286 286 287 289 288 287 287 287 286 285 285 285 285 284 281 279 277 278 278 277 277 277 276 274 273 273 272 273 273 273 272 272 272 272 271 271 272 272 271 270 271
289 288 289 288 287 288 289 288 289 288 288 288 287 286 286 286 285 283 282 281 280 278 278 277 277 277 276 275 274 273 274 274 274 273 272 272 272 272 272 273 273 272 272 272
290 288 287 288 288 288 289 288 288 288 288 288 288 287 286 286 285 284 283 283 282 281 279 278 277 277 277 277 276 275 275 275 274 274 274 274 274 273 274 274 274 274 273 272
290 287 286 286 287 287 287 287 288 288 289 289 289 289 287 287 287 286 284 285 284 284 281 279 279 278 278 278 277 276 276 276 275 275 275 275 275 275 275 275 276 276 276 275
292 290 287 285 286 286 287 288 288 288 289 289 290 291 290 288 287 287 287 287 286 285 283 281 279 279 279 278 278 277 277 277 276 276 276 275 276 276 276 276 277 277 277 278
291 290 288 287 286 287 288 288 288 289 288 289 290 290 290 289 289 289 288 287 287 288 286 283 281 279 279 279 278 277 277 277 276 276 276 276 276 277 277 278 278 279 280 279